Powrót do katalogu

COSMOS 2251 DEB

AktywnyLEO
NORAD 34610·DEBRIS·🇷🇺 Russia

Wystrzelony Jun 16, 1993 z Plesetsk Cosmodrome

Loading…

Następne Przeloty (najbliższe 24 godziny)

TLE

ŚwieżeSource: Space-Track

Epoka: Sep 14, 2026, 08:19 UTC

1 34610U 93036WF  26257.34719311  .00001500  00000-0  76957-3 0  9999
2 34610  74.0166 138.3861 0180001 206.4316 152.7558 14.08245324894380

Śledź COSMOS 2251 DEB w czasie rzeczywistym z AllMySat

Download on the App Store